Presure
243 223 229 226 229 232 225 226 224 231 232 228 230 247 265 255 248 246 246 259 245 249 242 245 242 240 241
245 239 242 230 230 230 234 236 232 230 231 253 256 259 257 249 253 258 245 257 254 250 245 219 217 216 216
257 247 239 237 230 230 228 240 243 245 251 264 260 262 261 254 256 242 206 203 205 205 219 221 225 229 240
283 280 267 265 267 271 271 261 256 261 261 258 255 231 204 207 211 216 222 229 229 235 245 252 254 248 242
286 280 276 268 272 267 264 268 253 211 202 213 217 222 226 237 242 252 256 258 250 241 237 218 224 237 254
281 281 277 264 257 251 194 215 219 232 237 244 248 250 251 249 244 241 238 239 245 250 261 263 276 294 420
214 230 233 235 238 239 239 240 243 241 237 241 238 232 237 244 251 255 260 266 271 282 314 380 367 374 384
220 222 225 228 229 232 234 233 230 233 241 244 253 253 260 267 272 287 308 323 367 390 415 380 365 352 342
227 228 228 229 231 227 233 238 247 262 276 280 295 304 306 298 320 388 402 379 361 380 356 345 335 335 315
227 232 232 244 229 238 243 273 308 274 278 302 364 357 363 378 374 368 349 341 355 344 336 339 313 304 313
243 240 229 241 278 303 289 269 277 364 347 333 338 360 354 340 341 335 335 344 337 326 313 328 345 357 346
232 248 306 296 274 259 276 364 345 328 322 313 330 333 329 328 356 354 333 330 322 327 355 312 313 311 311
361 296 270 257 255 374 358 338 321 310 353 335 322 318 354 372 337 321 295 313 358 306 301 273 281 292 281
259 263 256 261 395 365 338 322 305 338 340 322 312 346 376 334 314 292 305 320 294 284 272 293 277 281 288
247 273 284 288 382 354 326 309 301 349 331 316 354 364 325 312 300 315 312 294 269 258 270 276 283 266 275
256 285 279 299 379 349 319 294 348 343 320 306 357 319 306 318 335 296 289 270 271 279 267 263 274 268 269
281 276 276 344 373 348 317 292 354 340 313 351 329 301 296 323 291 273 273 274 271 266 264 264 263 262 253
Wind_Speed
94 98 101 103 105 100 103 104 107 107 104 101 102 96 79 76 73 76 77 79 72 75 73 73 72 70 71
92 93 94 95 99 99 100 100 101 103 102 99 92 81 79 76 79 80 74 73 72 74 73 62 66 68 71
92 93 92 94 94 97 98 99 99 97 94 85 80 78 75 74 75 70 57 59 62 64 71 74 78 81 87
74 75 81 83 82 82 82 83 86 84 79 75 75 67 60 62 64 69 71 75 77 81 85 88 89 89 88
59 61 65 69 71 72 74 76 74 61 60 66 68 72 77 80 81 83 83 83 81 81 83 80 85 91 96
46 49 52 52 56 60 58 65 70 73 75 82 79 84 85 83 81 79 79 79 83 88 98 101 107 110 58
47 49 54 57 61 65 67 71 74 74 75 84 78 80 82 86 88 92 94 98 101 107 107 61 63 57 46
48 53 57 61 64 68 71 72 73 75 81 90 92 96 101 102 104 105 102 94 64 47 34 39 42 45 48
59 63 66 70 73 71 78 84 92 97 99 103 101 98 99 97 86 53 43 41 43 31 35 38 43 42 47
68 73 76 79 79 85 88 95 86 87 89 91 59 55 54 50 47 43 41 40 30 31 34 32 37 41 48
75 77 79 84 82 77 81 84 88 56 53 54 54 43 40 45 46 40 36 30 31 29 30 32 32 27 25
76 81 69 68 73 76 84 54 51 50 49 49 43 42 43 40 35 27 28 29 29 32 25 17 17 21 24
57 63 67 73 75 53 49 48 45 45 33 34 38 41 36 31 22 23 29 30 28 11 12 27 30 24 32
68 71 74 76 51 47 44 42 42 38 31 32 34 34 27 18 19 24 26 16 13 15 24 17 21 23 28
69 72 70 73 50 44 41 39 40 35 32 31 32 20 20 17 19 18 16 8 16 22 24 27 22 27 28
72 68 70 73 51 44 39 36 38 32 29 30 22 18 18 16 14 9 10 11 13 8 15 23 21 24 30
68 68 71 65 53 43 39 36 37 30 27 29 19 17 17 17 3 5 8 10 14 15 18 19 22 24 27
Wind_Direction
277 278 279 282 284 284 285 287 288 289 290 292 291 291 287 286 285 284 285 284 280 280 279 279 276 273 269
281 281 280 279 281 282 281 282 283 284 287 285 289 287 285 285 283 283 279 279 277 275 274 273 270 267 266
276 277 277 278 279 278 281 280 280 282 285 285 287 285 284 282 281 281 281 278 275 273 282 280 279 278 277
272 273 274 275 277 278 278 279 280 283 284 284 284 285 281 281 282 283 284 284 285 285 283 282 280 278 274
275 277 276 277 278 278 280 283 283 286 289 288 289 288 286 285 285 285 286 286 284 281 279 275 274 274 279
284 284 285 287 285 285 287 291 290 291 290 288 289 288 288 288 287 287 284 284 285 285 286 284 285 285 275
295 298 296 295 294 294 294 293 292 292 292 291 289 287 287 288 290 290 291 290 289 287 285 283 282 280 277
301 301 302 301 299 299 297 295 292 293 295 292 292 292 291 290 289 289 289 289 290 286 281 279 279 277 278
310 308 306 304 303 300 299 299 297 294 291 287 287 287 287 289 289 292 293 293 289 281 279 274 276 281 286
311 309 306 302 302 300 298 293 290 296 296 292 293 291 292 294 295 296 294 290 283 280 283 282 283 280 276
307 305 304 301 299 295 294 299 299 300 296 294 294 297 294 293 298 298 296 292 291 290 293 299 294 294 297
304 305 304 301 300 304 302 301 299 299 298 295 294 294 294 298 297 298 297 300 308 310 308 301 297 309 318
310 309 306 306 307 307 304 301 299 298 297 296 295 295 295 296 290 299 298 310 312 290 290 306 305 322 305
313 311 310 310 315 309 304 302 299 302 299 297 297 298 292 286 292 295 296 294 292 291 303 306 312 316 325
314 314 314 315 318 310 306 304 302 303 302 303 310 292 283 295 292 278 284 265 306 306 314 321 333 312 323
316 318 318 325 320 311 307 303 310 301 300 305 299 283 290 296 279 260 286 305 304 326 318 316 344 336 330
319 320 320 325 322 309 307 307 308 297 297 307 274 285 297 303 275 288 313 326 333 326 318 325 327 325 313